Weather History for KCQX - August, 2013

Change the Weather History Date:

Tuesday, August 6, 2013

  Actual Average Record
Temperature  
Mean Temperature 64 °F -  
Max Temperature 75 °F 75 °F 89 °F (2010)
Min Temperature 55 °F 62 °F 55 °F (1972)
Degree Days  
Heating Degree Days 1    
Growing Degree Days 14 (Base 50)    
Moisture  
Dew Point 53 °F    
Average Humidity 65    
Maximum Humidity 89    
Minimum Humidity 42    
Precipitation  
Precipitation 0.00 in - - ()
Sea Level Pressure  
Sea Level Pressure 30.13 in    
Wind  
Wind Speed 3 mph (ENE)    
Max Wind Speed 7 mph    
Max Gust Speed -    
Visibility 10 miles    
Events      
Averages and records for this station are not official NWS values.
T = Trace of Precipitation, MM = Missing Value Source: NWS Daily Summary

Daily Weather History Graph

Daily Weather History Graph

Search for Another Location

Airport or City:

Trip Planner

Search our weather history database for the weather conditions in past years. The results will help you decide how hot, cold, wet, or windy it might be!

Date:

Astronomy

Aug. 06, 2013 Rise Set
Actual Time 5:39 AM EDT 7:51 PM EDT
Civil Twilight 5:08 AM EDT 8:22 PM EDT
Nautical Twilight 4:30 AM EDT 8:59 PM EDT
Astronomical Twilight 3:48 AM EDT 9:41 PM EDT
Moon 5:28 AM EDT (8/6) 7:23 PM EDT (8/6)
Length of Visible Light 15h 13m
Length of Day
14h 12m
Waning Crescent, 0% of the Moon is Illuminated
Aug 6
Waning Crescent
Aug 6
New
Aug 14
First Quarter
Aug 20
Full
Aug 28
Last Quarter

Hourly Weather History & Observations

Time (EDT) Temp. Dew Point Humidity Pressure Visibility Wind Dir Wind Speed Gust Speed Precip Events Conditions
12:52 AM 60.1 °F 55.9 °F 86% 30.05 in 10.0 mi NW 3.5 mph - N/A   Clear
1:52 AM 59.0 °F 54.0 °F 83% 30.06 in 10.0 mi NNW 4.6 mph - N/A   Clear
2:52 AM 57.9 °F 53.1 °F 84% 30.06 in 10.0 mi Calm Calm - N/A   Clear
3:52 AM 57.0 °F 51.1 °F 81% 30.06 in 10.0 mi NNW 3.5 mph - N/A   Clear
4:52 AM 55.0 °F 51.1 °F 86% 30.08 in 10.0 mi Calm Calm - N/A   Clear
5:52 AM 55.0 °F 52.0 °F 89% 30.09 in 10.0 mi Calm Calm - N/A   Clear
6:52 AM 62.1 °F 54.0 °F 75% 30.11 in 10.0 mi North 3.5 mph - N/A   Clear
7:52 AM 68.0 °F 55.0 °F 63% 30.12 in 10.0 mi Calm Calm - N/A   Clear
8:52 AM 70.0 °F 51.1 °F 51% 30.13 in 10.0 mi ENE 4.6 mph - N/A   Clear
9:52 AM 71.1 °F 48.0 °F 44% 30.14 in 10.0 mi Calm Calm - N/A   Clear
10:52 AM 73.0 °F 51.1 °F 46% 30.14 in 10.0 mi Variable 3.5 mph - N/A   Clear
11:52 AM 73.0 °F 51.1 °F 46% 30.15 in 10.0 mi ENE 4.6 mph - N/A   Clear
12:52 PM 73.0 °F 48.9 °F 42% 30.15 in 10.0 mi ENE 6.9 mph - N/A   Clear
1:52 PM 73.0 °F 48.9 °F 42% 30.17 in 10.0 mi Variable 5.8 mph - N/A   Clear
2:52 PM 73.9 °F 51.1 °F 45% 30.16 in 10.0 mi Variable 3.5 mph - N/A   Clear
3:52 PM 73.0 °F 52.0 °F 48% 30.16 in 10.0 mi South 5.8 mph - N/A   Clear
4:52 PM 72.0 °F 48.9 °F 44% 30.16 in 10.0 mi ESE 4.6 mph - N/A   Clear
5:52 PM 71.1 °F 51.1 °F 49% 30.16 in 10.0 mi SE 4.6 mph - N/A   Clear
6:52 PM 69.1 °F 53.1 °F 57% 30.16 in 10.0 mi SE 4.6 mph - N/A   Clear
7:52 PM 66.0 °F 54.0 °F 65% 30.17 in 10.0 mi Calm Calm - N/A   Clear
8:52 PM 64.0 °F 57.0 °F 78% 30.19 in 10.0 mi South 3.5 mph - N/A   Clear
9:52 PM 63.0 °F 57.0 °F 81% 30.19 in 10.0 mi Variable 3.5 mph - N/A   Clear
10:52 PM 62.1 °F 57.0 °F 84% 30.17 in 10.0 mi Calm Calm - N/A   Clear
11:52 PM 62.1 °F 57.0 °F 84% 30.17 in 10.0 mi Calm Calm - N/A   Clear